Regional Weather Roundup
Issued by NWS Kansas City/Pleasant Hill, MO

Home | Current Version | Previous Version | Text Only | Print | Product List | Glossary On
Versions: 1 2 3 4 5 6 7 8 9 10 11 12 13 14 15 16 17 18 19 20 21 22 23 24 25 26 27 28 29 30 31 32 33 34 35 36 37 38 39 40 41 42 43 44 45 46 47 48 49 50
000
ASUS43 KEAX 060411
RWREAX

WEATHER ROUNDUP FOR EASTERN KANSAS AND NORTHWEST MISSOURI
NATIONAL WEATHER SERVICE KANSAS CITY/PLEASANT HILL MO
1100 PM CDT TUE MAY 05 2015

KSZ040-057-103>105-MOZ028-029-037-043-060500-
...KANSAS CITY METROPOLITAN AREA...

CITY           SKY/WX    TMP DP  RH WIND       PRES   REMARKS
K.C. INTL      CLOUDY    65  62  90 E9        30.03F
K.C. DOWNTOWN  CLOUDY    67  64  90 E6        30.03S
LEES SUMMIT    CLOUDY    70  61  73 SE9       30.05S
OLATHE - IXD   CLOUDY    65  63  93 E7        30.03S
OLATHE - OJC   CLOUDY    66  64  93 E7        30.03S
LAWRENCE       CLOUDY    65  62  90 E8        30.01S

$$

MOZ001>008-011>017-020>025-030>033-038>040-044>046-053-054-060500-
...NORTHERN AND CENTRAL MISSOURI...

CITY           SKY/WX    TMP DP  RH WIND       PRES   REMARKS
ST. JOSEPH     CLOUDY    65  61  87 E8        30.03F
MOSBY          CLOUDY    70  59  68 E5        30.05F
HARRISONVILLE  CLOUDY    70  63  78 SE7       30.06F
WARRENSBURG    CLOUDY    66  59  77 SE7       30.06S
WHITEMAN AFB   CLOUDY    66  61  82 S8        30.06R
CLINTON        CLOUDY    72  59  64 SE8       30.07S
SEDALIA        MOCLDY    68  59  73 SE7       30.09S
WARSAW         NOT AVBL
MARSHALL       CLOUDY    68  64  88 E8        30.08F
CHILLICOTHE      N/A     69  60  73 SE3       30.08R
MOBERLY        MOCLDY    68  59  73 SE6       30.11R
KIRKSVILLE     CLOUDY    69  60  73 SE8       30.10S

$$

MOZ041-047>049-056>058-063>065-088>090-097-060500-
...EASTERN AND SOUTHERN MISSOURI...

CITY           SKY/WX    TMP DP  RH WIND       PRES   REMARKS
ST. LOUIS INTL PTCLDY    74  58  57 SE7       30.14S
SPIRIT OF STL  CLEAR     68  58  70 SE5       30.12S
COLUMBIA       PTCLDY    67  61  81 SE6       30.10S
JEFFERSON CITY PTCLDY    65  60  84 SE8       30.09S
MEXICO         FAIR      66  61  82 SE5       30.11R
HANNIBAL       MOCLDY    72  54  53 SE5       30.11S
ROLLA          PTCLDY    66  55  67 SE8       30.11S
LEBANON        PTCLDY    66  54  63 S8        30.12S
OSAGE BEACH    PTCLDY    70  54  56 SE3       30.10S
SPRINGFIELD    MOCLDY    70  53  54 SE14      30.08S
BRANSON        PTCLDY    68  54  60 SE12      30.11S
NEVADA         CLOUDY    68  55  64 SE10      30.05S
JOPLIN         CLOUDY    70  55  59 SE9       30.03S
WEST PLAINS    CLEAR     65  52  62 SE3       30.15S

$$

IAZ060-094-KSZ022-034>040-054-083-096-NEZ052-066-093-060500-
...KANSAS...SOUTHEAST NEBRASKA AND IOWA...

CITY           SKY/WX    TMP DP  RH WIND       PRES   REMARKS
TOPEKA         HVY RAIN  65  63  93 S8        30.02R FOG
MANHATTAN      LGT RAIN  68  63  84 SE14      29.97R
EMPORIA        LGT RAIN  64  62  93 SE13      30.00R
CHANUTE        CLOUDY    67  65  93 E5        30.00F
WICHITA        RAIN      65  62  90 SE21      29.93F
OMAHA          CLOUDY    71  58  63 SE18G29   29.98S
LINCOLN        CLOUDY    67  59  75 SE14      29.96R
FALLS CITY     CLOUDY    64  60  87 SE8       30.00F
LAMONI         CLOUDY    70  57  63 SE10      30.06S
DES MOINES     CLOUDY    69  62  78 E10       30.06R

$$



USA.gov is the U.S. government's official web portal to all federal, state and local government web resources and services.